Lumberton, NC

10:49 AM EDT on May 26, 2017 (GMT -0400)
Lumberton Municipal

Weather History for KLBT - December, 2013

Change the Weather History Date:

Friday, December 20, 2013

  Actual Average Record
Temperature  
Mean Temperature 55 °F 45 °F  
Max Temperature 70 °F 55 °F 73 °F (2008)
Min Temperature 39 °F 35 °F 15 °F (2004)
Degree Days  
Heating Degree Days 10 20  
Month to date heating degree days 315 356  
Since 1 July heating degree days 831 822  
Cooling Degree Days 0 0  
Month to date cooling degree days 6 0  
Year to date cooling degree days 1867 1907  
Growing Degree Days 4 (Base 50)    
Moisture  
Dew Point 47 °F    
Average Humidity 78    
Maximum Humidity 100    
Minimum Humidity 55    
Precipitation  
Precipitation 0.00 in 0.09 in 0.53 in (2008)
Month to date precipitation 2.73 2.02  
Year to date precipitation 42.93 42.65  
Sea Level Pressure  
Sea Level Pressure 30.21 in    
Wind  
Wind Speed 3 mph (SW)    
Max Wind Speed 16 mph    
Max Gust Speed 21 mph    
Visibility 10 miles    
Events      
T = Trace of Precipitation, MM = Missing Value Source: NWS Daily Summary

Daily Weather History Graph

Daily Weather History Graph

Search for Another Location

Airport or City:

Trip Planner

Search our weather history database for the weather conditions in past years. The results will help you decide how hot, cold, wet, or windy it might be!

Date:

Astronomy

Dec. 20, 2013 Rise Set
Actual Time 7:18 AM EST 5:09 PM EST
Civil Twilight 6:50 AM EST 5:37 PM EST
Nautical Twilight 6:19 AM EST 6:08 PM EST
Astronomical Twilight 5:48 AM EST 6:39 PM EST
Moon 8:21 PM EST (12/20) 9:18 AM EST (12/20)
Length of Visible Light 10h 46m
Length of Day
9h 50m
Waning Gibbous, 90% of the Moon is Illuminated
Dec 20
Waning Gibbous
Dec 25
Last Quarter
Jan 1
New
Jan 7
First Quarter
Jan 15
Full

Hourly Weather History & Observations

Time (EST) Temp. Dew Point Humidity Pressure Visibility Wind Dir Wind Speed Gust Speed Precip Events Conditions
12:54 AM 39.9 °F 37.0 °F 89% 30.25 in 10.0 mi Calm Calm - N/A   Clear
1:54 AM 39.9 °F 37.0 °F 89% 30.25 in 10.0 mi Calm Calm - N/A   Clear
2:54 AM 39.0 °F 37.0 °F 93% 30.24 in 10.0 mi Calm Calm - N/A   Clear
3:54 AM 39.9 °F 37.0 °F 89% 30.23 in 10.0 mi Calm Calm - N/A   Clear
4:54 AM 39.9 °F 37.9 °F 93% 30.23 in 10.0 mi Calm Calm - N/A   Mostly Cloudy
5:54 AM 39.9 °F 37.9 °F 93% 30.24 in 10.0 mi Calm Calm - N/A   Clear
6:54 AM 43.0 °F 39.9 °F 89% 30.25 in 10.0 mi Calm Calm - N/A   Mostly Cloudy
7:54 AM 44.1 °F 42.1 °F 93% 30.25 in 10.0 mi Calm Calm - N/A   Overcast
8:54 AM 46.9 °F 44.1 °F 90% 30.26 in 10.0 mi Calm Calm - N/A   Mostly Cloudy
9:54 AM 52.0 °F 46.9 °F 83% 30.27 in 10.0 mi Calm Calm - N/A   Overcast
10:54 AM 59.0 °F 51.1 °F 75% 30.26 in 10.0 mi Calm Calm - N/A   Clear
11:54 AM 66.9 °F 55.9 °F 68% 30.23 in 10.0 mi WSW 8.1 mph - N/A   Clear
12:54 PM 68.0 °F 54.0 °F 61% 30.19 in 10.0 mi WSW 16.1 mph - N/A   Clear
1:54 PM 69.1 °F 54.0 °F 58% 30.17 in 10.0 mi SW 13.8 mph - N/A   Clear
2:54 PM 69.1 °F 53.1 °F 57% 30.16 in 10.0 mi SW 13.8 mph - N/A   Clear
3:54 PM 68.0 °F 51.1 °F 55% 30.17 in 10.0 mi WSW 9.2 mph - N/A   Clear
4:54 PM 64.9 °F 52.0 °F 63% 30.18 in 10.0 mi SW 3.5 mph - N/A   Clear
5:54 PM 60.1 °F 52.0 °F 75% 30.18 in 10.0 mi Calm Calm - N/A   Clear
6:54 PM 55.9 °F 52.0 °F 87% 30.18 in 10.0 mi SSE 3.5 mph - N/A   Scattered Clouds
7:54 PM 57.0 °F 52.0 °F 83% 30.18 in 10.0 mi Calm Calm - N/A   Partly Cloudy
8:54 PM 54.0 °F 50.0 °F 86% 30.18 in 10.0 mi Calm Calm - N/A   Clear
9:54 PM 54.0 °F 50.0 °F 86% 30.19 in 10.0 mi Calm Calm - N/A   Partly Cloudy
10:54 PM 52.0 °F 51.1 °F 97% 30.19 in 6.0 mi Calm Calm - N/A   Partly Cloudy
11:54 PM 53.1 °F 51.1 °F 93% 30.18 in 9.0 mi Calm Calm - N/A   Overcast